This is the latest recevied weather packets stored in our database for station/object HP1CDW-13. If no packets are shown the sender has not sent any weather packets the latest 10 day(s).
| Time | Temp. | Humidity | Pressure | Rain* | Wind** | Luminosity | Snow |
|---|---|---|---|---|---|---|---|
| 1777924490 | 30.56° C | 75% | 1012.6 hPa | 0 mm | - | - | - |
| 1777923890 | 30.56° C | 74% | 1012.6 hPa | 0 mm | - | - | - |
| 1777923290 | 30° C | 74% | 1012.6 hPa | 0 mm | - | - | - |
| 1777922690 | 30.56° C | 74% | 1012.7 hPa | 0 mm | - | - | - |
| 1777922090 | 30.56° C | 73% | 1012.7 hPa | 0 mm | - | - | - |
| 1777921490 | 31.11° C | 73% | 1012.8 hPa | 0 mm | - | - | - |
| 1777920890 | 31.67° C | 74% | 1012.8 hPa | 0 mm | - | - | - |
| 1777920290 | 31.67° C | 74% | 1012.8 hPa | 0 mm | - | - | - |
| 1777919690 | 31.67° C | 74% | 1013 hPa | 0 mm | - | - | - |
| 1777919090 | 31.11° C | 75% | 1013 hPa | 0 mm | - | - | - |
| 1777918490 | 32.22° C | 72% | 1013.4 hPa | 0 mm | - | - | - |
| 1777917890 | 32.78° C | 70% | 1013.5 hPa | 0 mm | - | - | - |
| 1777917290 | 31.67° C | 73% | 1013.7 hPa | 0 mm | - | - | - |
| 1777916690 | 30.56° C | 75% | 1014 hPa | 0 mm | - | - | - |
| 1777916090 | 31.11° C | 74% | 1014.3 hPa | 0 mm | - | - | - |
| 1777915490 | 31.67° C | 73% | 1014.3 hPa | 0 mm | - | - | - |
| 1777914890 | 31.67° C | 72% | 1014.5 hPa | 0 mm | - | - | - |
| 1777914290 | 31.67° C | 73% | 1014.4 hPa | 0 mm | - | - | - |
| 1777913690 | 32.22° C | 71% | 1014.5 hPa | 0 mm | - | - | - |
| 1777913090 | 31.67° C | 74% | 1014.4 hPa | 0 mm | - | - | - |
| 1777912490 | 31.11° C | 74% | 1014.6 hPa | 0 mm | - | - | - |
| 1777911890 | 31.11° C | 75% | 1014.9 hPa | 0 mm | - | - | - |
| 1777911290 | 31.67° C | 72% | 1014.9 hPa | 0 mm | - | - | - |
| 1777910690 | 30.56° C | 75% | 1015 hPa | 0 mm | - | - | - |
| 1777910090 | 30.56° C | 74% | 1014.8 hPa | 0 mm | - | - | - |
* Rain latest hour (hover to see other rain measurements)
** Current wind speed in m/s (hover to see current wind gust speed)